Weather History for KPDK - August, 2014

Change the Weather History Date:

Tuesday, August 12, 2014

  Actual Average Record
Temperature  
Mean Temperature 80 °F 80 °F  
Max Temperature 88 °F 89 °F 98 °F (1999)
Min Temperature 71 °F 70 °F 51 °F (1996)
Cooling Degree Days 15 14  
Month to date cooling degree days 153 179  
Year to date cooling degree days 1154 1202  
Since 1 June cooling degree days 937 991  
Growing Degree Days 30 (Base 50)    
Moisture  
Dew Point 69 °F    
Average Humidity 71    
Maximum Humidity 93    
Minimum Humidity 48    
Precipitation  
Precipitation 0.03 in 0.15 in 1.55 in (2004)
Month to date precipitation 2.55 1.96  
Year to date precipitation 29.32 34.23  
Sea Level Pressure  
Sea Level Pressure 29.88 in    
Wind  
Wind Speed 6 mph (West)    
Max Wind Speed 16 mph    
Max Gust Speed 38 mph    
Visibility 7 miles    
Events Rain    
T = Trace of Precipitation, MM = Missing Value Source: NWS Daily Summary

Daily Weather History Graph

Daily Weather History Graph

Search for Another Location

Airport or City:

Trip Planner

Search our weather history database for the weather conditions in past years. The results will help you decide how hot, cold, wet, or windy it might be!

Date:

Astronomy

Aug. 12, 2014 Rise Set
Actual Time 6:56 AM EDT 8:27 PM EDT
Civil Twilight 6:30 AM EDT 8:53 PM EDT
Nautical Twilight 5:58 AM EDT 9:25 PM EDT
Astronomical Twilight 5:24 AM EDT 9:58 PM EDT
Moon 9:44 PM EDT (8/12) 9:04 AM EDT (8/12)
Length of Visible Light 14h 23m
Length of Day
13h 30m
Waning Gibbous, 95% of the Moon is Illuminated
Aug 12
Waning Gibbous
Aug 17
Last Quarter
Aug 25
New
Sep 2
First Quarter
Sep 8
Full

Hourly Weather History & Observations

Time (EDT) Temp. Heat Index Dew Point Humidity Pressure Visibility Wind Dir Wind Speed Gust Speed Precip Events Conditions
12:53 AM 73.9 °F - 71.1 °F 91% 29.92 in 7.0 mi Calm Calm - N/A   Clear
1:53 AM 73.9 °F - 71.1 °F 91% 29.90 in 7.0 mi WSW 4.6 mph - N/A   Clear
2:53 AM 73.0 °F - 71.1 °F 93% 29.89 in 6.0 mi WSW 4.6 mph - 0.03 in Rain Light Rain
3:53 AM 73.0 °F - 70.0 °F 90% 29.88 in 7.0 mi SW 5.8 mph - 0.00 in   Partly Cloudy
4:53 AM 72.0 °F - 69.1 °F 91% 29.87 in 6.0 mi WSW 3.5 mph - N/A   Scattered Clouds
5:53 AM 71.1 °F - 69.1 °F 93% 29.87 in 6.0 mi SW 4.6 mph - N/A   Scattered Clouds
6:03 AM 71.6 °F - 69.8 °F 94% 29.92 in 7.0 mi SSW 3.5 mph - N/A   Mostly Cloudy
6:53 AM 72.0 °F - 70.0 °F 93% 29.87 in 6.0 mi Calm Calm - N/A   Overcast
7:49 AM 73.4 °F - 69.8 °F 88% 29.92 in 4.0 mi West 4.6 mph - N/A   Overcast
7:53 AM 73.0 °F - 71.1 °F 93% 29.87 in 4.0 mi WSW 5.8 mph - N/A   Overcast
8:53 AM 73.9 °F - 71.1 °F 91% 29.89 in 4.0 mi WNW 4.6 mph - N/A   Overcast
9:53 AM 75.9 °F - 71.1 °F 85% 29.90 in 5.0 mi WSW 3.5 mph - N/A   Haze
10:00 AM 77.0 °F - 71.6 °F 83% 29.94 in 5.0 mi Variable 4.6 mph - N/A   Haze
10:53 AM 78.1 °F - 70.0 °F 76% 29.90 in 7.0 mi WSW 9.2 mph - N/A   Overcast
11:00 AM 78.8 °F - 69.8 °F 74% 29.95 in 7.0 mi Variable 4.6 mph - N/A   Overcast
11:53 AM 80.1 °F 83.6 °F 71.1 °F 74% 29.90 in 7.0 mi West 5.8 mph - N/A   Mostly Cloudy
12:05 PM 80.6 °F 83.9 °F 69.8 °F 70% 29.95 in 7.0 mi West 6.9 mph - N/A   Mostly Cloudy
1:53 PM 84.9 °F 89.4 °F 70.0 °F 61% 29.86 in 7.0 mi Variable 6.9 mph - N/A   Partly Cloudy
2:53 PM 86.0 °F 90.7 °F 70.0 °F 59% 29.84 in 8.0 mi Variable 3.5 mph - N/A   Scattered Clouds
3:53 PM 88.0 °F 91.4 °F 68.0 °F 51% 29.81 in 9.0 mi Variable 6.9 mph - N/A   Partly Cloudy
4:53 PM 86.0 °F 88.8 °F 66.9 °F 53% 29.81 in 9.0 mi West 9.2 mph - N/A   Scattered Clouds
5:53 PM 87.1 °F 89.2 °F 66.0 °F 49% 29.81 in 9.0 mi West 10.4 mph - N/A   Clear
6:53 PM 86.0 °F 87.6 °F 64.9 °F 49% 29.81 in 9.0 mi WNW 6.9 mph - N/A   Clear
7:53 PM 82.9 °F 84.6 °F 64.9 °F 54% 29.82 in 9.0 mi WNW 6.9 mph - N/A   Clear
8:53 PM 81.0 °F 82.7 °F 64.9 °F 58% 29.84 in 9.0 mi NW 16.1 mph 20.7 mph N/A   Partly Cloudy
9:12 PM 78.8 °F - 64.4 °F 61% 29.91 in 9.0 mi North 8.1 mph 17.3 mph N/A   Scattered Clouds
9:53 PM 77.0 °F - 63.0 °F 62% 29.87 in 10.0 mi NNW 4.6 mph - N/A   Clear
10:53 PM 75.0 °F - 64.0 °F 69% 29.88 in 10.0 mi NNW 3.5 mph - N/A   Clear
11:53 PM 73.9 °F - 63.0 °F 68% 29.89 in 10.0 mi Calm Calm - N/A   Scattered Clouds